owner,sensor,date,latitude,longitude,vertical_datum,wind_speed,wind_to_direction,wind_speed_of_gust,qcFlag 
DISL,ioos:station:DISL:CATA:1,2018-07-01T00:00:00Z,30.3085,-88.1395,0.0,6.0,258.0,99.0,'11111222,11111222,11144222' 
DISL,ioos:station:DISL:CATA:1,2018-07-01T00:30:00Z,30.3085,-88.1395,0.0,2.3,294.0,99.0,'11111222,11111222,11144222' 
DISL,ioos:station:DISL:CATA:1,2018-07-01T00:40:00Z,30.3085,-88.1395,0.0,2.57,310.9,-9999.0,'1111122,1111122,1111122' 
DISL,ioos:station:DISL:CATA:1,2018-07-01T01:00:00Z,30.3085,-88.1395,0.0,1.5,343.0,99.0,'11111222,11111222,11144222' 
DISL,ioos:station:DISL:CATA:1,2018-07-01T01:30:00Z,30.3085,-88.1395,0.0,2.8,2.0,99.0,'11111222,11111222,11144222' 
DISL,ioos:station:DISL:CATA:1,2018-07-01T01:40:00Z,30.3085,-88.1395,0.0,1.66,16.87,-9999.0,'1111122,1111122,1111122' 
DISL,ioos:station:DISL:CATA:1,2018-07-01T02:00:00Z,30.3085,-88.1395,0.0,1.8,347.0,99.0,'11111222,11111222,11144222' 
DISL,ioos:station:DISL:CATA:1,2018-07-01T02:30:00Z,30.3085,-88.1395,0.0,2.7,339.0,99.0,'11111222,11111222,11144222' 
DISL,ioos:station:DISL:CATA:1,2018-07-01T02:40:00Z,30.3085,-88.1395,0.0,2.53,341.5,-9999.0,'1111122,1111122,1111122' 
DISL,ioos:station:DISL:CATA:1,2018-07-01T03:00:00Z,30.3085,-88.1395,0.0,6.3,327.0,99.0,'11111222,11111222,11144222' 
DISL,ioos:station:DISL:CATA:1,2018-07-01T03:30:00Z,30.3085,-88.1395,0.0,7.3,336.0,99.0,'11111222,11111222,11144222' 
DISL,ioos:station:DISL:CATA:1,2018-07-01T03:40:00Z,30.3085,-88.1395,0.0,5.54,337.5,-9999.0,'1111122,1111122,1111122' 
DISL,ioos:station:DISL:CATA:1,2018-07-01T04:00:00Z,30.3085,-88.1395,0.0,3.6,342.0,99.0,'11111222,11111222,11144222' 
DISL,ioos:station:DISL:CATA:1,2018-07-01T04:30:00Z,30.3085,-88.1395,0.0,2.0,38.0,99.0,'11111222,11111222,11144222' 
DISL,ioos:station:DISL:CATA:1,2018-07-01T04:40:00Z,30.3085,-88.1395,0.0,1.62,54.18,-9999.0,'1111122,1111122,1111122' 
DISL,ioos:station:DISL:CATA:1,2018-07-01T05:00:00Z,30.3085,-88.1395,0.0,2.0,43.0,99.0,'11111222,11111222,11144222' 
DISL,ioos:station:DISL:CATA:1,2018-07-01T05:30:00Z,30.3085,-88.1395,0.0,2.7,316.0,99.0,'11111222,11111222,11144222' 
DISL,ioos:station:DISL:CATA:1,2018-07-01T05:40:00Z,30.3085,-88.1395,0.0,2.02,301.1,-9999.0,'1111122,1111122,1111122' 
DISL,ioos:station:DISL:CATA:1,2018-07-01T06:30:00Z,30.3085,-88.1395,0.0,3.3,251.0,99.0,'11111222,11111222,11144222' 
DISL,ioos:station:DISL:CATA:1,2018-07-01T06:40:00Z,30.3085,-88.1395,0.0,3.49,239.6,-9999.0,'1111122,1111122,1111122' 
DISL,ioos:station:DISL:CATA:1,2018-07-01T07:00:00Z,30.3085,-88.1395,0.0,3.3,215.0,99.0,'11111222,11111222,11144222' 
DISL,ioos:station:DISL:CATA:1,2018-07-01T07:30:00Z,30.3085,-88.1395,0.0,2.8,349.0,99.0,'11111222,11111222,11144222' 
DISL,ioos:station:DISL:CATA:1,2018-07-01T07:40:00Z,30.3085,-88.1395,0.0,1.71,340.1,-9999.0,'1111122,1111122,1111122' 
DISL,ioos:station:DISL:CATA:1,2018-07-01T08:00:00Z,30.3085,-88.1395,0.0,1.9,11.0,99.0,'11111222,11111222,11144222' 
DISL,ioos:station:DISL:CATA:1,2018-07-01T08:30:00Z,30.3085,-88.1395,0.0,2.7,342.0,99.0,'11111222,11111222,11144222' 
DISL,ioos:station:DISL:CATA:1,2018-07-01T08:40:00Z,30.3085,-88.1395,0.0,3.02,340.4,-9999.0,'1111122,1111122,1111122' 
DISL,ioos:station:DISL:CATA:1,2018-07-01T09:00:00Z,30.3085,-88.1395,0.0,1.7,338.0,99.0,'11111222,11111222,11144222' 
DISL,ioos:station:DISL:CATA:1,2018-07-01T09:30:00Z,30.3085,-88.1395,0.0,3.2,314.0,99.0,'11111222,11111222,11144222' 
DISL,ioos:station:DISL:CATA:1,2018-07-01T09:40:00Z,30.3085,-88.1395,0.0,3.22,327.6,-9999.0,'1111122,1111122,1111122' 
DISL,ioos:station:DISL:CATA:1,2018-07-01T10:00:00Z,30.3085,-88.1395,0.0,2.0,334.0,99.0,'11111222,11111222,11144222' 
DISL,ioos:station:DISL:CATA:1,2018-07-01T10:30:00Z,30.3085,-88.1395,0.0,2.1,358.0,99.0,'11111222,11111222,11144222' 
DISL,ioos:station:DISL:CATA:1,2018-07-01T10:40:00Z,30.3085,-88.1395,0.0,2.27,353.4,-9999.0,'1111122,1111122,1111122' 
DISL,ioos:station:DISL:CATA:1,2018-07-01T11:00:00Z,30.3085,-88.1395,0.0,1.8,3.0,99.0,'11111222,11111222,11144222' 
DISL,ioos:station:DISL:CATA:1,2018-07-01T11:30:00Z,30.3085,-88.1395,0.0,3.3,328.0,99.0,'11111222,11111222,11144222' 
DISL,ioos:station:DISL:CATA:1,2018-07-01T11:40:00Z,30.3085,-88.1395,0.0,4.53,332.1,-9999.0,'1111122,1111122,1111122' 
DISL,ioos:station:DISL:CATA:1,2018-07-01T12:00:00Z,30.3085,-88.1395,0.0,3.9,349.0,99.0,'11111222,11111222,11144222' 
DISL,ioos:station:DISL:CATA:1,2018-07-01T12:30:00Z,30.3085,-88.1395,0.0,3.9,8.0,99.0,'11111222,11111222,11144222' 
DISL,ioos:station:DISL:CATA:1,2018-07-01T12:40:00Z,30.3085,-88.1395,0.0,4.27,12.49,-9999.0,'1111122,1111122,1111122' 
DISL,ioos:station:DISL:CATA:1,2018-07-01T13:00:00Z,30.3085,-88.1395,0.0,4.1,21.0,99.0,'11111222,11111222,11144222' 
DISL,ioos:station:DISL:CATA:1,2018-07-01T13:30:00Z,30.3085,-88.1395,0.0,4.1,23.0,99.0,'11111222,11111222,11144222' 
DISL,ioos:station:DISL:CATA:1,2018-07-01T13:40:00Z,30.3085,-88.1395,0.0,3.61,27.43,-9999.0,'1111122,1111122,1111122' 
DISL,ioos:station:DISL:CATA:1,2018-07-01T14:00:00Z,30.3085,-88.1395,0.0,3.3,31.0,99.0,'11111222,11111222,11144222' 
DISL,ioos:station:DISL:CATA:1,2018-07-01T14:30:00Z,30.3085,-88.1395,0.0,3.3,30.0,99.0,'11111222,11111222,11144222' 
DISL,ioos:station:DISL:CATA:1,2018-07-01T14:40:00Z,30.3085,-88.1395,0.0,3.56,29.72,-9999.0,'1111122,1111122,1111122' 
DISL,ioos:station:DISL:CATA:1,2018-07-01T15:00:00Z,30.3085,-88.1395,0.0,3.4,52.0,99.0,'11111222,11111222,11144222' 
DISL,ioos:station:DISL:CATA:1,2018-07-01T15:30:00Z,30.3085,-88.1395,0.0,2.2,35.0,99.0,'11111222,11111222,11144222' 
DISL,ioos:station:DISL:CATA:1,2018-07-01T15:40:00Z,30.3085,-88.1395,0.0,1.54,53.63,-9999.0,'1111122,1111122,1111122' 
DISL,ioos:station:DISL:CATA:1,2018-07-01T16:00:00Z,30.3085,-88.1395,0.0,1.1,146.0,99.0,'11111222,11111222,11144222' 
DISL,ioos:station:DISL:CATA:1,2018-07-01T16:30:00Z,30.3085,-88.1395,0.0,2.0,181.0,99.0,'11111222,11111222,11144222' 
DISL,ioos:station:DISL:CATA:1,2018-07-01T16:40:00Z,30.3085,-88.1395,0.0,1.86,171.1,-9999.0,'1111122,1111122,1111122' 
DISL,ioos:station:DISL:CATA:1,2018-07-01T17:00:00Z,30.3085,-88.1395,0.0,1.4,191.0,99.0,'11111222,11111222,11144222' 
DISL,ioos:station:DISL:CATA:1,2018-07-01T17:30:00Z,30.3085,-88.1395,0.0,1.2,144.0,99.0,'11111222,11111222,11144222' 
DISL,ioos:station:DISL:CATA:1,2018-07-01T17:40:00Z,30.3085,-88.1395,0.0,1.48,152.2,-9999.0,'1111122,1111122,1111122' 
DISL,ioos:station:DISL:CATA:1,2018-07-01T18:00:00Z,30.3085,-88.1395,0.0,0.9,167.0,99.0,'11111222,11111222,11144222' 
DISL,ioos:station:DISL:CATA:1,2018-07-01T18:30:00Z,30.3085,-88.1395,0.0,2.0,136.0,99.0,'11111222,11111222,11144222' 
DISL,ioos:station:DISL:CATA:1,2018-07-01T18:40:00Z,30.3085,-88.1395,0.0,2.46,151.9,-9999.0,'1111122,1111122,1111122' 
DISL,ioos:station:DISL:CATA:1,2018-07-01T19:00:00Z,30.3085,-88.1395,0.0,2.4,161.0,99.0,'11111222,11111222,11144222' 
DISL,ioos:station:DISL:CATA:1,2018-07-01T19:30:00Z,30.3085,-88.1395,0.0,3.9,184.0,99.0,'11111222,11111222,11144222' 
DISL,ioos:station:DISL:CATA:1,2018-07-01T19:40:00Z,30.3085,-88.1395,0.0,3.69,196.6,-9999.0,'1111122,1111122,1111122' 
DISL,ioos:station:DISL:CATA:1,2018-07-01T20:00:00Z,30.3085,-88.1395,0.0,4.1,204.0,99.0,'11111222,11111222,11144222' 
DISL,ioos:station:DISL:CATA:1,2018-07-01T20:30:00Z,30.3085,-88.1395,0.0,5.6,211.0,99.0,'11111222,11111222,11144222' 
DISL,ioos:station:DISL:CATA:1,2018-07-01T20:40:00Z,30.3085,-88.1395,0.0,5.49,203.4,-9999.0,'1111122,1111122,1111122' 
DISL,ioos:station:DISL:CATA:1,2018-07-01T21:00:00Z,30.3085,-88.1395,0.0,6.4,210.0,99.0,'11111222,11111222,11144222' 
DISL,ioos:station:DISL:CATA:1,2018-07-01T21:30:00Z,30.3085,-88.1395,0.0,6.5,204.0,99.0,'11111222,11111222,11144222' 
DISL,ioos:station:DISL:CATA:1,2018-07-01T21:40:00Z,30.3085,-88.1395,0.0,6.09,212.1,-9999.0,'1111122,1111122,1111122' 
DISL,ioos:station:DISL:CATA:1,2018-07-01T22:00:00Z,30.3085,-88.1395,0.0,7.0,206.0,99.0,'11111222,11111222,11144222' 
DISL,ioos:station:DISL:CATA:1,2018-07-01T22:30:00Z,30.3085,-88.1395,0.0,5.6,178.0,99.0,'11111222,11111222,11144222' 
DISL,ioos:station:DISL:CATA:1,2018-07-01T22:40:00Z,30.3085,-88.1395,0.0,5.19,104.3,-9999.0,'1111122,1111122,1111122' 
DISL,ioos:station:DISL:CATA:1,2018-07-01T23:00:00Z,30.3085,-88.1395,0.0,10.1,50.0,99.0,'11111222,11111222,11144222' 
DISL,ioos:station:DISL:CATA:1,2018-07-01T23:30:00Z,30.3085,-88.1395,0.0,4.0,112.0,99.0,'11111222,11111222,11144222' 
DISL,ioos:station:DISL:CATA:1,2018-07-01T23:40:00Z,30.3085,-88.1395,0.0,2.85,106.8,-9999.0,'1111122,1111122,1111122' 
DISL,ioos:station:DISL:CATA:1,2018-07-02T00:00:00Z,30.3085,-88.1395,0.0,1.4,171.0,99.0,'11111222,11111222,11144222' 
DISL,ioos:station:DISL:CATA:1,2018-07-02T00:30:00Z,30.3085,-88.1395,0.0,0.9,255.0,99.0,'11111222,11111222,11144222' 
DISL,ioos:station:DISL:CATA:1,2018-07-02T00:40:00Z,30.3085,-88.1395,0.0,1.62,284.3,-9999.0,'1111122,1111122,1111122' 
DISL,ioos:station:DISL:CATA:1,2018-07-02T01:00:00Z,30.3085,-88.1395,0.0,1.7,264.0,99.0,'11111222,11111222,11144222' 
DISL,ioos:station:DISL:CATA:1,2018-07-02T01:30:00Z,30.3085,-88.1395,0.0,1.7,255.0,99.0,'11111222,11111222,11144222' 
DISL,ioos:station:DISL:CATA:1,2018-07-02T01:40:00Z,30.3085,-88.1395,0.0,3.56,250.0,-9999.0,'1111122,1111122,1111122' 
DISL,ioos:station:DISL:CATA:1,2018-07-02T02:00:00Z,30.3085,-88.1395,0.0,4.2,248.0,99.0,'11111222,11111222,11144222' 
DISL,ioos:station:DISL:CATA:1,2018-07-02T02:30:00Z,30.3085,-88.1395,0.0,5.9,245.0,99.0,'11111222,11111222,11144222' 
DISL,ioos:station:DISL:CATA:1,2018-07-02T02:40:00Z,30.3085,-88.1395,0.0,6.31,251.9,-9999.0,'1111122,1111122,1111122' 
DISL,ioos:station:DISL:CATA:1,2018-07-02T03:00:00Z,30.3085,-88.1395,0.0,6.0,264.0,99.0,'11111222,11111222,11144222' 
DISL,ioos:station:DISL:CATA:1,2018-07-02T03:30:00Z,30.3085,-88.1395,0.0,4.9,249.0,99.0,'11111222,11111222,11144222' 
DISL,ioos:station:DISL:CATA:1,2018-07-02T03:40:00Z,30.3085,-88.1395,0.0,4.68,245.7,-9999.0,'1111122,1111122,1111122' 
DISL,ioos:station:DISL:CATA:1,2018-07-02T04:00:00Z,30.3085,-88.1395,0.0,4.8,246.0,99.0,'11111222,11111222,11144222' 
DISL,ioos:station:DISL:CATA:1,2018-07-02T04:30:00Z,30.3085,-88.1395,0.0,3.8,247.0,99.0,'11111222,11111222,11144222' 
DISL,ioos:station:DISL:CATA:1,2018-07-02T04:40:00Z,30.3085,-88.1395,0.0,3.94,248.8,-9999.0,'1111122,1111122,1111122' 
DISL,ioos:station:DISL:CATA:1,2018-07-02T05:00:00Z,30.3085,-88.1395,0.0,4.0,244.0,99.0,'11111222,11111222,11144222' 
DISL,ioos:station:DISL:CATA:1,2018-07-02T05:30:00Z,30.3085,-88.1395,0.0,3.6,245.0,99.0,'11111222,11111222,11144222' 
DISL,ioos:station:DISL:CATA:1,2018-07-02T05:40:00Z,30.3085,-88.1395,0.0,3.44,257.9,-9999.0,'1111122,1111122,1111122' 
DISL,ioos:station:DISL:CATA:1,2018-07-02T06:30:00Z,30.3085,-88.1395,0.0,3.2,322.0,99.0,'11111222,11111222,11144222' 
DISL,ioos:station:DISL:CATA:1,2018-07-02T06:40:00Z,30.3085,-88.1395,0.0,3.49,322.3,-9999.0,'1111122,1111122,1111122' 
DISL,ioos:station:DISL:CATA:1,2018-07-02T07:00:00Z,30.3085,-88.1395,0.0,3.3,315.0,99.0,'11111222,11111222,11144222' 
DISL,ioos:station:DISL:CATA:1,2018-07-02T07:30:00Z,30.3085,-88.1395,0.0,3.8,310.0,99.0,'11111222,11111222,11144222' 
DISL,ioos:station:DISL:CATA:1,2018-07-02T07:40:00Z,30.3085,-88.1395,0.0,3.38,312.3,-9999.0,'1111122,1111122,1111122' 
DISL,ioos:station:DISL:CATA:1,2018-07-02T08:00:00Z,30.3085,-88.1395,0.0,3.1,316.0,99.0,'11111222,11111222,11144222' 
DISL,ioos:station:DISL:CATA:1,2018-07-02T08:30:00Z,30.3085,-88.1395,0.0,3.7,316.0,99.0,'11111222,11111222,11144222' 
DISL,ioos:station:DISL:CATA:1,2018-07-02T08:40:00Z,30.3085,-88.1395,0.0,3.88,317.3,-9999.0,'1111122,1111122,1111122' 
DISL,ioos:station:DISL:CATA:1,2018-07-02T09:00:00Z,30.3085,-88.1395,0.0,3.2,330.0,99.0,'11111222,11111222,11144222' 
DISL,ioos:station:DISL:CATA:1,2018-07-02T09:30:00Z,30.3085,-88.1395,0.0,3.2,328.0,99.0,'11111222,11111222,11144222' 
DISL,ioos:station:DISL:CATA:1,2018-07-02T09:40:00Z,30.3085,-88.1395,0.0,3.97,319.0,-9999.0,'1111122,1111122,1111122' 
DISL,ioos:station:DISL:CATA:1,2018-07-02T10:00:00Z,30.3085,-88.1395,0.0,3.5,325.0,99.0,'11111222,11111222,11144222' 
DISL,ioos:station:DISL:CATA:1,2018-07-02T10:30:00Z,30.3085,-88.1395,0.0,2.6,349.0,99.0,'11111222,11111222,11144222' 
DISL,ioos:station:DISL:CATA:1,2018-07-02T10:40:00Z,30.3085,-88.1395,0.0,2.64,356.7,-9999.0,'1111122,1111122,1111122' 
DISL,ioos:station:DISL:CATA:1,2018-07-02T11:00:00Z,30.3085,-88.1395,0.0,3.6,7.0,99.0,'11111222,11111222,11144222' 
DISL,ioos:station:DISL:CATA:1,2018-07-02T11:30:00Z,30.3085,-88.1395,0.0,2.6,2.0,99.0,'11111222,11111222,11144222' 
DISL,ioos:station:DISL:CATA:1,2018-07-02T11:40:00Z,30.3085,-88.1395,0.0,2.23,3.292,-9999.0,'1111122,1111122,1111122' 
DISL,ioos:station:DISL:CATA:1,2018-07-02T12:00:00Z,30.3085,-88.1395,0.0,2.4,333.0,99.0,'11111222,11111222,11144222' 
DISL,ioos:station:DISL:CATA:1,2018-07-02T12:30:00Z,30.3085,-88.1395,0.0,2.8,322.0,99.0,'11111222,11111222,11144222' 
DISL,ioos:station:DISL:CATA:1,2018-07-02T12:40:00Z,30.3085,-88.1395,0.0,2.47,311.9,-9999.0,'1111122,1111122,1111122' 
DISL,ioos:station:DISL:CATA:1,2018-07-02T13:00:00Z,30.3085,-88.1395,0.0,2.9,309.0,99.0,'11111222,11111222,11144222' 
DISL,ioos:station:DISL:CATA:1,2018-07-02T13:30:00Z,30.3085,-88.1395,0.0,4.4,307.0,99.0,'11111222,11111222,11144222' 
DISL,ioos:station:DISL:CATA:1,2018-07-02T13:40:00Z,30.3085,-88.1395,0.0,4.16,313.8,-9999.0,'1111122,1111122,1111122' 
DISL,ioos:station:DISL:CATA:1,2018-07-02T14:00:00Z,30.3085,-88.1395,0.0,3.1,350.0,99.0,'11111222,11111222,11144222' 
DISL,ioos:station:DISL:CATA:1,2018-07-02T14:30:00Z,30.3085,-88.1395,0.0,2.5,358.0,99.0,'11111222,11111222,11144222' 
DISL,ioos:station:DISL:CATA:1,2018-07-02T14:40:00Z,30.3085,-88.1395,0.0,2.67,17.33,-9999.0,'1111122,1111122,1111122' 
DISL,ioos:station:DISL:CATA:1,2018-07-02T15:00:00Z,30.3085,-88.1395,0.0,3.4,47.0,99.0,'11111222,11111222,11144222' 
DISL,ioos:station:DISL:CATA:1,2018-07-02T15:30:00Z,30.3085,-88.1395,0.0,4.4,75.0,99.0,'11111222,11111222,11144222' 
DISL,ioos:station:DISL:CATA:1,2018-07-02T15:40:00Z,30.3085,-88.1395,0.0,4.1,79.82,-9999.0,'1111122,1111122,1111122' 
DISL,ioos:station:DISL:CATA:1,2018-07-02T16:00:00Z,30.3085,-88.1395,0.0,2.4,69.0,99.0,'11111222,11111222,11144222' 
DISL,ioos:station:DISL:CATA:1,2018-07-02T16:30:00Z,30.3085,-88.1395,0.0,2.7,27.0,99.0,'11111222,11111222,11144222' 
DISL,ioos:station:DISL:CATA:1,2018-07-02T16:40:00Z,30.3085,-88.1395,0.0,2.83,25.91,-9999.0,'1111122,1111122,1111122' 
DISL,ioos:station:DISL:CATA:1,2018-07-02T17:00:00Z,30.3085,-88.1395,0.0,2.2,14.0,99.0,'11111222,11111222,11144222' 
DISL,ioos:station:DISL:CATA:1,2018-07-02T17:30:00Z,30.3085,-88.1395,0.0,2.9,352.0,99.0,'11111222,11111222,11144222' 
DISL,ioos:station:DISL:CATA:1,2018-07-02T17:40:00Z,30.3085,-88.1395,0.0,2.65,345.8,-9999.0,'1111122,1111122,1111122' 
DISL,ioos:station:DISL:CATA:1,2018-07-02T18:00:00Z,30.3085,-88.1395,0.0,1.8,2.0,99.0,'11111222,11111222,11144222' 
DISL,ioos:station:DISL:CATA:1,2018-07-02T18:30:00Z,30.3085,-88.1395,0.0,1.5,14.0,99.0,'11111222,11111222,11144222' 
DISL,ioos:station:DISL:CATA:1,2018-07-02T18:40:00Z,30.3085,-88.1395,0.0,1.57,14.81,-9999.0,'1111122,1111122,1111122' 
DISL,ioos:station:DISL:CATA:1,2018-07-02T19:00:00Z,30.3085,-88.1395,0.0,2.4,44.0,99.0,'11111222,11111222,11144222' 
DISL,ioos:station:DISL:CATA:1,2018-07-02T19:30:00Z,30.3085,-88.1395,0.0,2.5,55.0,99.0,'11111222,11111222,11144222' 
DISL,ioos:station:DISL:CATA:1,2018-07-02T19:40:00Z,30.3085,-88.1395,0.0,2.34,62.3,-9999.0,'1111122,1111122,1111122' 
DISL,ioos:station:DISL:CATA:1,2018-07-02T20:00:00Z,30.3085,-88.1395,0.0,2.0,64.0,99.0,'11111222,11111222,11144222' 
DISL,ioos:station:DISL:CATA:1,2018-07-02T20:30:00Z,30.3085,-88.1395,0.0,4.3,77.0,99.0,'11111222,11111222,11144222' 
DISL,ioos:station:DISL:CATA:1,2018-07-02T20:40:00Z,30.3085,-88.1395,0.0,5.33,89.5,-9999.0,'1111122,1111122,1111122' 
DISL,ioos:station:DISL:CATA:1,2018-07-02T21:00:00Z,30.3085,-88.1395,0.0,4.0,60.0,99.0,'11111222,11111222,11144222' 
DISL,ioos:station:DISL:CATA:1,2018-07-02T21:30:00Z,30.3085,-88.1395,0.0,0.6,83.0,99.0,'11111222,11111222,11144222' 
DISL,ioos:station:DISL:CATA:1,2018-07-02T21:40:00Z,30.3085,-88.1395,0.0,1.02,151.3,-9999.0,'1111122,1111122,1111122' 
DISL,ioos:station:DISL:CATA:1,2018-07-02T22:00:00Z,30.3085,-88.1395,0.0,1.1,187.0,99.0,'11111222,11111222,11144222' 
DISL,ioos:station:DISL:CATA:1,2018-07-02T22:30:00Z,30.3085,-88.1395,0.0,4.8,297.0,99.0,'11111222,11111222,11144222' 
DISL,ioos:station:DISL:CATA:1,2018-07-02T22:40:00Z,30.3085,-88.1395,0.0,4.65,307.6,-9999.0,'1111122,1111122,1111122' 
DISL,ioos:station:DISL:CATA:1,2018-07-02T23:00:00Z,30.3085,-88.1395,0.0,3.0,322.0,99.0,'11111222,11111222,11144222' 
DISL,ioos:station:DISL:CATA:1,2018-07-02T23:30:00Z,30.3085,-88.1395,0.0,3.3,335.0,99.0,'11111222,11111222,11144222' 
DISL,ioos:station:DISL:CATA:1,2018-07-02T23:40:00Z,30.3085,-88.1395,0.0,3.78,332.3,-9999.0,'1111122,1111122,1111122' 
DISL,ioos:station:DISL:CATA:1,2018-07-03T00:00:00Z,30.3085,-88.1395,0.0,3.5,323.0,99.0,'11111222,11111222,11144222' 
DISL,ioos:station:DISL:CATA:1,2018-07-03T00:30:00Z,30.3085,-88.1395,0.0,3.3,313.0,99.0,'11111222,11111222,11144222' 
DISL,ioos:station:DISL:CATA:1,2018-07-03T00:40:00Z,30.3085,-88.1395,0.0,3.4,311.9,-9999.0,'1111122,1111122,1111122' 
DISL,ioos:station:DISL:CATA:1,2018-07-03T01:00:00Z,30.3085,-88.1395,0.0,3.1,303.0,99.0,'11111222,11111222,11144222' 
DISL,ioos:station:DISL:CATA:1,2018-07-03T01:30:00Z,30.3085,-88.1395,0.0,3.7,324.0,99.0,'11111222,11111222,11144222' 
DISL,ioos:station:DISL:CATA:1,2018-07-03T01:40:00Z,30.3085,-88.1395,0.0,4.44,319.2,-9999.0,'1111122,1111122,1111122' 
DISL,ioos:station:DISL:CATA:1,2018-07-03T02:00:00Z,30.3085,-88.1395,0.0,3.7,332.0,99.0,'11111222,11111222,11144222' 
DISL,ioos:station:DISL:CATA:1,2018-07-03T02:30:00Z,30.3085,-88.1395,0.0,4.1,349.0,99.0,'11111222,11111222,11144222' 
DISL,ioos:station:DISL:CATA:1,2018-07-03T02:40:00Z,30.3085,-88.1395,0.0,3.84,343.5,-9999.0,'1111122,1111122,1111122' 
DISL,ioos:station:DISL:CATA:1,2018-07-03T03:00:00Z,30.3085,-88.1395,0.0,3.0,330.0,99.0,'11111222,11111222,11144222' 
DISL,ioos:station:DISL:CATA:1,2018-07-03T03:30:00Z,30.3085,-88.1395,0.0,2.9,339.0,99.0,'11111222,11111222,11144222' 
DISL,ioos:station:DISL:CATA:1,2018-07-03T03:40:00Z,30.3085,-88.1395,0.0,3.07,340.2,-9999.0,'1111122,1111122,1111122' 
DISL,ioos:station:DISL:CATA:1,2018-07-03T04:00:00Z,30.3085,-88.1395,0.0,3.0,338.0,99.0,'11111222,11111222,11144222' 
DISL,ioos:station:DISL:CATA:1,2018-07-03T04:30:00Z,30.3085,-88.1395,0.0,2.9,6.0,99.0,'11111222,11111222,11144222' 
DISL,ioos:station:DISL:CATA:1,2018-07-03T04:40:00Z,30.3085,-88.1395,0.0,2.29,51.51,-9999.0,'1111122,1111122,1111122' 
DISL,ioos:station:DISL:CATA:1,2018-07-03T05:00:00Z,30.3085,-88.1395,0.0,4.8,84.0,99.0,'11111222,11111222,11144222' 
DISL,ioos:station:DISL:CATA:1,2018-07-03T05:30:00Z,30.3085,-88.1395,0.0,4.6,103.0,99.0,'11111222,11111222,11144222' 
DISL,ioos:station:DISL:CATA:1,2018-07-03T05:40:00Z,30.3085,-88.1395,0.0,4.43,97.3,-9999.0,'1111122,1111122,1111122' 
DISL,ioos:station:DISL:CATA:1,2018-07-03T06:30:00Z,30.3085,-88.1395,0.0,5.3,113.0,99.0,'11111222,11111222,11144222' 
DISL,ioos:station:DISL:CATA:1,2018-07-03T06:40:00Z,30.3085,-88.1395,0.0,5.72,116.5,-9999.0,'1111122,1111122,1111122' 
DISL,ioos:station:DISL:CATA:1,2018-07-03T07:00:00Z,30.3085,-88.1395,0.0,4.5,141.0,99.0,'11111222,11111222,11144222' 
DISL,ioos:station:DISL:CATA:1,2018-07-03T07:30:00Z,30.3085,-88.1395,0.0,4.4,140.0,99.0,'11111222,11111222,11144222' 
DISL,ioos:station:DISL:CATA:1,2018-07-03T07:40:00Z,30.3085,-88.1395,0.0,5.23,136.5,-9999.0,'1111122,1111122,1111122' 
DISL,ioos:station:DISL:CATA:1,2018-07-03T08:00:00Z,30.3085,-88.1395,0.0,4.9,140.0,99.0,'11111222,11111222,11144222' 
DISL,ioos:station:DISL:CATA:1,2018-07-03T08:30:00Z,30.3085,-88.1395,0.0,4.8,132.0,99.0,'11111222,11111222,11144222' 
DISL,ioos:station:DISL:CATA:1,2018-07-03T08:40:00Z,30.3085,-88.1395,0.0,5.2,134.8,-9999.0,'1111122,1111122,1111122' 
DISL,ioos:station:DISL:CATA:1,2018-07-03T09:00:00Z,30.3085,-88.1395,0.0,4.9,131.0,99.0,'11111222,11111222,11144222' 
DISL,ioos:station:DISL:CATA:1,2018-07-03T09:30:00Z,30.3085,-88.1395,0.0,5.1,130.0,99.0,'11111222,11111222,11144222' 
DISL,ioos:station:DISL:CATA:1,2018-07-03T09:40:00Z,30.3085,-88.1395,0.0,5.09,134.1,-9999.0,'1111122,1111122,1111122' 
DISL,ioos:station:DISL:CATA:1,2018-07-03T10:00:00Z,30.3085,-88.1395,0.0,5.2,129.0,99.0,'11111222,11111222,11144222' 
DISL,ioos:station:DISL:CATA:1,2018-07-03T10:30:00Z,30.3085,-88.1395,0.0,5.3,127.0,99.0,'11111222,11111222,11144222' 
DISL,ioos:station:DISL:CATA:1,2018-07-03T10:40:00Z,30.3085,-88.1395,0.0,4.64,130.5,-9999.0,'1111122,1111122,1111122' 
DISL,ioos:station:DISL:CATA:1,2018-07-03T11:00:00Z,30.3085,-88.1395,0.0,5.3,126.0,99.0,'11111222,11111222,11144222' 
DISL,ioos:station:DISL:CATA:1,2018-07-03T11:30:00Z,30.3085,-88.1395,0.0,4.7,126.0,99.0,'11111222,11111222,11144222' 
DISL,ioos:station:DISL:CATA:1,2018-07-03T11:40:00Z,30.3085,-88.1395,0.0,4.77,124.6,-9999.0,'1111122,1111122,1111122' 
DISL,ioos:station:DISL:CATA:1,2018-07-03T12:00:00Z,30.3085,-88.1395,0.0,4.7,123.0,99.0,'11111222,11111222,11144222' 
DISL,ioos:station:DISL:CATA:1,2018-07-03T12:30:00Z,30.3085,-88.1395,0.0,5.3,99.0,99.0,'11111222,11111222,11144222' 
DISL,ioos:station:DISL:CATA:1,2018-07-03T12:40:00Z,30.3085,-88.1395,0.0,8.49,140.3,-9999.0,'1111122,1111122,1111122' 
DISL,ioos:station:DISL:CATA:1,2018-07-03T13:00:00Z,30.3085,-88.1395,0.0,3.9,105.0,99.0,'11111222,11111222,11144222' 
DISL,ioos:station:DISL:CATA:1,2018-07-03T13:30:00Z,30.3085,-88.1395,0.0,4.5,99.0,99.0,'11111222,11111222,11144222' 
DISL,ioos:station:DISL:CATA:1,2018-07-03T13:40:00Z,30.3085,-88.1395,0.0,4.52,105.7,-9999.0,'1111122,1111122,1111122' 
DISL,ioos:station:DISL:CATA:1,2018-07-03T14:00:00Z,30.3085,-88.1395,0.0,6.3,102.0,99.0,'11111222,11111222,11144222' 
DISL,ioos:station:DISL:CATA:1,2018-07-03T14:30:00Z,30.3085,-88.1395,0.0,6.5,112.0,99.0,'11111222,11111222,11144222' 
DISL,ioos:station:DISL:CATA:1,2018-07-03T14:40:00Z,30.3085,-88.1395,0.0,6.42,110.3,-9999.0,'1111122,1111122,1111122' 
DISL,ioos:station:DISL:CATA:1,2018-07-03T15:00:00Z,30.3085,-88.1395,0.0,6.6,119.0,99.0,'11111222,11111222,11144222' 
DISL,ioos:station:DISL:CATA:1,2018-07-03T15:30:00Z,30.3085,-88.1395,0.0,6.5,129.0,99.0,'11111222,11111222,11144222' 
DISL,ioos:station:DISL:CATA:1,2018-07-03T15:40:00Z,30.3085,-88.1395,0.0,6.32,130.5,-9999.0,'1111122,1111122,1111122' 
DISL,ioos:station:DISL:CATA:1,2018-07-03T16:00:00Z,30.3085,-88.1395,0.0,7.0,124.0,99.0,'11111222,11111222,11144222' 
DISL,ioos:station:DISL:CATA:1,2018-07-03T16:30:00Z,30.3085,-88.1395,0.0,7.2,121.0,99.0,'11111222,11111222,11144222' 
DISL,ioos:station:DISL:CATA:1,2018-07-03T16:40:00Z,30.3085,-88.1395,0.0,7.56,121.7,-9999.0,'1111122,1111122,1111122' 
DISL,ioos:station:DISL:CATA:1,2018-07-03T17:00:00Z,30.3085,-88.1395,0.0,7.1,118.0,99.0,'11111222,11111222,11144222' 
DISL,ioos:station:DISL:CATA:1,2018-07-03T17:30:00Z,30.3085,-88.1395,0.0,6.9,108.0,99.0,'11111222,11111222,11144222' 
DISL,ioos:station:DISL:CATA:1,2018-07-03T17:40:00Z,30.3085,-88.1395,0.0,6.84,113.6,-9999.0,'1111122,1111122,1111122' 
DISL,ioos:station:DISL:CATA:1,2018-07-03T18:00:00Z,30.3085,-88.1395,0.0,8.0,122.0,99.0,'11111222,11111222,11144222' 
DISL,ioos:station:DISL:CATA:1,2018-07-03T18:30:00Z,30.3085,-88.1395,0.0,8.0,128.0,99.0,'11111222,11111222,11144222' 
DISL,ioos:station:DISL:CATA:1,2018-07-03T18:40:00Z,30.3085,-88.1395,0.0,7.6,129.1,-9999.0,'1111122,1111122,1111122' 
DISL,ioos:station:DISL:CATA:1,2018-07-03T19:00:00Z,30.3085,-88.1395,0.0,7.3,131.0,99.0,'11111222,11111222,11144222' 
DISL,ioos:station:DISL:CATA:1,2018-07-03T19:30:00Z,30.3085,-88.1395,0.0,7.6,131.0,99.0,'11111222,11111222,11144222' 
DISL,ioos:station:DISL:CATA:1,2018-07-03T19:40:00Z,30.3085,-88.1395,0.0,7.65,133.4,-9999.0,'1111122,1111122,1111122' 
DISL,ioos:station:DISL:CATA:1,2018-07-03T20:00:00Z,30.3085,-88.1395,0.0,7.2,139.0,99.0,'11111222,11111222,11144222' 
DISL,ioos:station:DISL:CATA:1,2018-07-03T20:30:00Z,30.3085,-88.1395,0.0,6.7,146.0,99.0,'11111222,11111222,11144222' 
DISL,ioos:station:DISL:CATA:1,2018-07-03T20:40:00Z,30.3085,-88.1395,0.0,6.85,136.2,-9999.0,'1111122,1111122,1111122' 